GW6305 Weather Reports


Display with metric or nautical units.
time (UTC)temp
F
wind
direction
speed
MPH
gust
MPH
rain 1hr
in
rain 24hr
in
rain mn
in
humidity
%
barometer
mb
20260506221911 61 306 1.0 1.0 0.00 0.31 0.31 92 1006.5
20260506221408 61 165 0.0 0.0 0.00 0.31 0.31 92 1006.5
20260506220906 61 165 0.0 0.0 0.00 0.31 0.31 92 1006.4
20260506220401 61 165 0.0 0.0 0.00 0.31 0.31 92 1006.2
20260506215858 61 165 0.0 0.0 0.00 0.31 0.31 91 1006.5
20260506215354 61 165 0.0 0.0 0.07 0.31 0.31 91 1006.2
20260506214850 61 165 0.0 0.0 0.00 0.30 0.30 91 1006.0
20260506214346 62 165 1.0 1.0 0.00 0.30 0.30 90 1006.1
20260506213845 62 329 1.0 2.0 0.00 0.30 0.30 88 1006.1
20260506213342 62 126 1.0 3.0 0.00 0.30 0.30 86 1006.0
20260506212839 62 344 0.0 3.0 0.00 0.30 0.30 86 1005.9
20260506212335 62 319 0.0 2.0 0.00 0.30 0.30 85 1005.7
20260506211830 63 131 1.0 4.0 0.00 0.30 0.30 85 1005.6
20260506211326 63 349 1.0 1.0 0.00 0.30 0.30 85 1005.6
20260506210824 63 306 0.0 2.0 0.00 0.30 0.30 86 1005.4
20260506210320 63 307 0.0 2.0 0.00 0.30 0.30 85 1005.4
20260506205818 63 26 0.0 2.0 0.00 0.30 0.30 87 1005.6
20260506205313 62 166 1.0 6.0 0.00 0.30 0.30 87 1005.5
20260506204810 62 326 2.0 2.0 0.00 0.30 0.30 88 1005.3
20260506204308 62 320 1.0 1.0 0.00 0.30 0.30 88 1005.4
20260506203806 62 294 2.0 2.0 0.00 0.30 0.30 89 1005.4
20260506203302 62 295 0.0 2.0 0.00 0.30 0.30 90 1005.2
20260506202759 62 159 0.0 1.0 0.00 0.30 0.30 91 1005.2
20260506202256 62 158 0.0 2.0 0.00 0.30 0.30 91 1005.3
20260506201752 61 308 0.0 1.0 0.00 0.30 0.30 92 1005.3
20260506201249 61 308 0.0 1.0 0.00 0.30 0.30 92 1005.4
20260506200747 61 320 0.0 0.0 0.00 0.30 0.30 92 1005.3
20260506200243 61 320 0.0 0.0 0.00 0.30 0.30 92 1005.6
20260506195739 61 269 0.0 0.0 0.00 0.30 0.30 92 1005.6
20260506195236 61 299 0.0 0.0 0.00 0.30 0.30 93 1005.6
20260506194733 61 299 1.0 2.0 0.00 0.30 0.30 93 1005.5
20260506194229 61 299 0.0 0.0 0.00 0.30 0.30 94 1005.7
20260506193728 61 300 1.0 2.0 0.00 0.30 0.30 94 1005.5
20260506193224 61 41 0.0 0.0 0.00 0.30 0.30 95 1005.8
20260506192720 61 41 0.0 0.0 0.00 0.30 0.30 95 1005.7
20260506192217 60 41 0.0 0.0 0.00 0.30 0.30 96 1005.7
20260506191714 60 41 0.0 0.0 0.00 0.30 0.30 96 1005.8
20260506191210 60 41 0.0 0.0 0.00 0.30 0.30 96 1005.6
20260506190708 60 41 0.0 0.0 0.00 0.30 0.30 95 1006.0
20260506190204 60 41 0.0 0.0 0.00 0.30 0.30 95 1005.9
20260506185702 60 41 0.0 0.0 0.00 0.30 0.30 95 1005.8
20260506185158 60 41 0.0 0.0 0.00 0.30 0.30 96 1005.9
20260506184656 59 41 0.0 0.0 0.00 0.30 0.30 96 1005.8
20260506184153 59 41 0.0 0.0 0.00 0.30 0.30 95 1005.7
20260506183649 59 20 0.0 0.0 0.00 0.30 0.30 95 1005.8
20260506183145 59 34 0.0 0.0 0.00 0.30 0.30 95 1006.0
20260506182643 59 100 0.0 0.0 0.00 0.30 0.30 95 1006.1
20260506182139 59 16 0.0 0.0 0.00 0.30 0.30 95 1006.2
20260506181637 59 16 0.0 0.0 0.00 0.30 0.30 95 1006.1
20260506181134 59 16 0.0 1.0 0.00 0.30 0.30 95 1006.1
20260506180631 59 24 2.0 3.0 0.00 0.30 0.30 95 1006.1
20260506180128 59 75 0.0 0.0 0.00 0.30 0.30 95 1006.3
20260506175624 59 289 0.0 0.0 0.05 0.30 0.30 95 1006.3
20260506175120 59 289 0.0 0.0 0.00 0.29 0.29 94 1006.3
20260506174619 59 289 0.0 0.0 0.00 0.29 0.29 94 1006.2
20260506174115 59 28 0.0 1.0 0.00 0.29 0.29 94 1006.4
20260506173613 59 34 0.0 1.0 0.07 0.29 0.29 94 1006.1
20260506173109 59 56 0.0 0.0 0.07 0.29 0.29 94 1006.3
20260506172607 59 74 1.0 1.0 0.00 0.28 0.28 94 1006.2
20260506172103 59 86 0.0 1.0 0.00 0.28 0.28 94 1006.3
20260506171600 59 325 2.0 2.0 0.05 0.28 0.28 93 1006.4
20260506171058 59 64 1.0 2.0 0.05 0.28 0.28 93 1006.5
20260506170555 59 335 0.0 1.0 0.00 0.27 0.27 93 1006.5
20260506170053 59 81 0.0 0.0 0.00 0.27 0.27 93 1006.3
20260506165551 59 81 0.0 0.0 0.00 0.27 0.27 93 1006.2
20260506165042 59 81 0.0 0.0 0.00 0.27 0.27 93 1006.1
20260506164539 59 81 0.0 1.0 0.07 0.27 0.27 92 1006.1
20260506164036 59 81 1.0 2.0 0.07 0.27 0.27 92 1006.2
20260506163532 59 171 0.0 1.0 0.00 0.26 0.26 92 1006.3
20260506163028 59 144 1.0 1.0 0.00 0.26 0.26 93 1006.2
20260506162524 59 31 1.0 1.0 0.00 0.26 0.26 92 1006.2
20260506162021 59 71 0.0 1.0 0.00 0.26 0.26 92 1006.2
20260506161518 59 73 0.0 1.0 0.00 0.26 0.26 92 1006.1
20260506161015 59 2 1.0 1.0 0.00 0.26 0.26 93 1006.1
20260506160513 59 11 0.0 0.0 0.00 0.26 0.26 93 1006.2
20260506160011 59 11 0.0 1.0 0.00 0.26 0.26 93 1006.2
20260506155509 59 55 0.0 1.0 0.00 0.26 0.26 93 1006.4
20260506153640 59 166 0.0 1.0 0.07 0.25 0.25 93 1006.4
20260506153137 59 167 0.0 2.0 0.07 0.25 0.25 93 1006.5
20260506152634 59 63 0.0 0.0 0.07 0.24 0.24 93 1006.5
20260506152131 59 73 0.0 2.0 0.19 0.24 0.24 94 1006.6
20260506151630 59 54 0.0 0.0 0.12 0.22 0.22 94 1006.8
20260506151126 59 54 0.0 0.0 0.12 0.21 0.21 93 1006.8
20260506150623 59 54 0.0 0.0 0.12 0.20 0.20 93 1006.6
20260506150120 59 54 0.0 0.0 0.05 0.19 0.19 93 1006.8
20260506145617 59 306 1.0 1.0 0.12 0.18 0.18 93 1006.7
20260506145114 59 56 0.0 0.0 0.12 0.17 0.17 93 1006.4
20260506144611 59 56 0.0 0.0 0.07 0.16 0.16 93 1006.6
20260506144108 59 56 0.0 0.0 0.05 0.15 0.15 93 1006.7
20260506143606 59 56 0.0 0.0 0.00 0.14 0.14 93 1006.8
20260506143103 59 336 2.0 6.0 0.07 0.14 0.14 93 1006.4
20260506142601 59 2 0.0 1.0 0.07 0.14 0.14 93 1006.5
20260506142059 59 2 0.0 0.0 0.05 0.13 0.13 92 1006.7
20260506141556 59 10 0.0 1.0 0.07 0.12 0.12 92 1006.6
20260506141055 59 7 0.0 0.0 0.14 0.12 0.12 92 1006.7
20260506140552 58 56 1.0 2.0 0.07 0.11 0.11 92 1006.9
20260506140049 59 61 0.0 1.0 0.05 0.10 0.10 92 1006.8
20260506135546 58 59 0.0 0.0 0.05 0.10 0.10 92 1007.2
20260506135042 59 59 0.0 0.0 0.00 0.09 0.09 92 1006.9
20260506134539 59 59 0.0 0.0 0.07 0.09 0.09 92 1007.0
20260506134035 59 59 0.0 0.0 0.12 0.09 0.09 92 1007.3
20260506133532 59 59 0.0 0.0 0.05 0.08 0.08 92 1007.4
20260506133029 59 58 0.0 0.0 0.07 0.07 0.07 92 1007.5
20260506132526 59 58 0.0 0.0 0.12 0.07 0.07 92 1007.3
20260506132023 59 58 0.0 0.0 0.05 0.06 0.06 91 1007.5
20260506131520 59 58 0.0 0.0 0.07 0.05 0.05 91 1007.5
20260506131017 59 58 0.0 1.0 0.05 0.04 0.04 90 1007.9
20260506130514 59 61 0.0 0.0 0.05 0.04 0.04 90 1007.7
20260506130011 59 61 0.0 0.0 0.07 0.03 0.03 90 1007.5
20260506125509 59 61 0.0 0.0 0.07 0.03 0.03 89 1007.7
20260506125007 60 61 0.0 1.0 0.05 0.02 0.02 87 1007.8
20260506124504 60 61 0.0 1.0 0.12 0.02 0.02 85 1007.7
20260506124002 60 61 0.0 1.0 0.07 0.01 0.01 83 1007.8
20260506123500 61 61 0.0 1.0 0.00 0.00 0.00 81 1007.5
20260506122957 62 331 0.0 1.0 0.00 0.00 0.00 77 1007.7
20260506122454 62 2 2.0 3.0 0.00 0.00 0.00 76 1007.3
20260506121953 62 5 1.0 2.0 0.00 0.00 0.00 75 1007.2
20260506121449 62 282 1.0 3.0 0.00 0.00 0.00 75 1007.4
20260506120946 62 277 0.0 0.0 0.00 0.00 0.00 75 1007.5
20260506120443 62 277 0.0 0.0 0.00 0.00 0.00 74 1007.5
20260506115941 62 8 2.0 3.0 0.00 0.00 0.00 74 1007.3
20260506115439 62 71 0.0 1.0 0.00 0.00 0.00 73 1007.2
20260506114937 62 70 1.0 1.0 0.00 0.00 0.00 74 1007.2
20260506114434 62 7 1.0 3.0 0.00 0.00 0.00 73 1007.3
20260506113932 63 103 0.0 2.0 0.00 0.00 0.00 72 1007.2
20260506113430 63 79 0.0 1.0 0.00 0.00 0.00 70 1007.0
20260506112926 63 142 1.0 1.0 0.00 0.00 0.00 69 1006.9
20260506112424 63 138 0.0 1.0 0.00 0.00 0.00 69 1006.9
20260506111921 63 306 1.0 3.0 0.00 0.00 0.00 69 1006.7
20260506111419 63 134 0.0 2.0 0.00 0.00 0.00 68 1006.9
20260506110916 63 162 0.0 3.0 0.00 0.00 0.00 68 1006.9
20260506110414 63 144 1.0 1.0 0.00 0.00 0.00 68 1006.6
20260506105910 63 195 0.0 1.0 0.00 0.00 0.00 68 1006.7
20260506105406 63 195 0.0 1.0 0.00 0.00 0.00 68 1006.7
20260506104904 63 136 0.0 1.0 0.00 0.00 0.00 68 1006.6
20260506104401 63 136 0.0 0.0 0.00 0.00 0.00 67 1006.7
20260506103859 63 136 0.0 0.0 0.00 0.00 0.00 66 1006.6
20260506103356 63 136 0.0 2.0 0.00 0.00 0.00 65 1006.4
20260506102853 63 77 1.0 1.0 0.00 0.00 0.00 65 1006.3
20260506102351 63 77 0.0 1.0 0.00 0.00 0.00 64 1006.1
20260506101848 63 77 0.0 1.0 0.00 0.00 0.00 63 1006.4
20260506101344 64 71 1.0 1.0 0.00 0.00 0.00 62 1006.4
20260506100842 64 71 1.0 2.0 0.00 0.00 0.00 62 1006.5
20260506100340 64 22 0.0 1.0 0.00 0.00 0.00 61 1006.3
20260506095838 64 95 0.0 1.0 0.00 0.00 0.00 60 1006.3
20260506095335 64 124 0.0 0.0 0.00 0.00 0.00 60 1006.4
20260506094832 64 124 0.0 1.0 0.00 0.00 0.00 60 1006.5
20260506094331 64 124 0.0 2.0 0.00 0.00 0.00 59 1006.5
20260506093829 64 124 0.0 1.0 0.00 0.00 0.00 59 1006.6
20260506093326 64 156 0.0 1.0 0.00 0.00 0.00 59 1006.6
20260506092823 64 127 1.0 2.0 0.00 0.00 0.00 59 1006.5
20260506092321 64 252 0.0 0.0 0.00 0.00 0.00 59 1006.8
20260506091818 64 252 0.0 1.0 0.00 0.00 0.00 59 1006.6
20260506091315 64 252 0.0 1.0 0.00 0.00 0.00 58 1006.6
20260506090813 65 252 0.0 2.0 0.00 0.00 0.00 58 1006.6
20260506090310 65 316 0.0 1.0 0.00 0.00 0.00 56 1006.8
20260506085806 65 324 0.0 0.0 0.00 0.00 0.00 57 1006.6
20260506085305 64 351 1.0 1.0 0.00 0.00 0.00 57 1006.8
20260506084759 64 38 2.0 2.0 0.00 0.00 0.00 57 1006.8
20260506084256 65 35 0.0 2.0 0.00 0.00 0.00 57 1006.6
20260506083753 65 71 0.0 1.0 0.00 0.00 0.00 56 1006.5
20260506083251 65 90 3.0 3.0 0.00 0.00 0.00 55 1006.7
20260506082748 65 353 0.0 2.0 0.00 0.00 0.00 55 1006.7
20260506082243 65 79 0.0 2.0 0.00 0.00 0.00 55 1007.0
20260506081741 65 92 1.0 2.0 0.00 0.00 0.00 55 1006.6
20260506081238 66 318 2.0 3.0 0.00 0.00 0.00 54 1006.7
20260506080737 66 108 0.0 1.0 0.00 0.00 0.00 53 1006.5
20260506080232 66 107 0.0 3.0 0.00 0.00 0.00 53 1006.7
20260506073217 66 57 0.0 2.0 0.00 0.00 0.00 52 1006.6
20260506072713 67 275 0.0 1.0 0.00 0.00 0.00 52 1006.9
20260506072211 66 275 0.0 3.0 0.00 0.00 0.00 50 1007.2
20260506071708 66 13 0.0 1.0 0.00 0.00 0.00 51 1007.2
20260506071206 66 41 0.0 1.0 0.00 0.00 0.00 51 1007.0
20260506070703 66 270 0.0 2.0 0.00 0.00 0.00 50 1007.2
20260506070200 66 308 0.0 1.0 0.00 0.00 0.00 49 1007.3
20260506062137 66 112 3.0 4.0 0.00 0.00 0.00 49 1007.4
20260506061632 66 325 1.0 2.0 0.00 0.00 0.00 49 1007.4
20260506061131 66 150 1.0 3.0 0.00 0.00 0.00 49 1007.5
20260506060629 66 141 1.0 1.0 0.00 0.00 0.00 50 1007.6
20260506060125 66 142 0.0 2.0 0.00 0.00 0.00 49 1007.7
20260506051057 67 135 1.0 1.0 0.00 0.00 0.00 47 1008.2
20260506050555 66 150 0.0 6.0 0.00 0.00 0.00 46 1008.4
20260506045046 66 233 1.0 2.0 0.00 0.00 0.00 48 1008.3
20260506044544 66 136 1.0 2.0 0.00 0.00 0.00 47 1008.3
20260506044040 66 154 0.0 1.0 0.00 0.00 0.00 49 1008.1
20260506043537 66 153 1.0 2.0 0.00 0.00 0.00 47 1008.1
20260506043036 66 136 1.0 2.0 0.00 0.00 0.00 46 1008.2
20260506042534 66 136 1.0 2.0 0.00 0.00 0.00 47 1008.2
20260506042032 66 129 1.0 2.0 0.00 0.00 0.00 48 1008.0
20260506041531 65 264 0.0 1.0 0.00 0.00 0.00 49 1008.3
20260506041027 65 275 0.0 1.0 0.00 0.00 0.00 49 1008.4
20260506040525 65 126 0.0 1.0 0.00 0.00 0.00 51 1008.5
20260506040020 66 126 0.0 1.0 0.00 0.00 0.00 51 1008.5
20260506035517 66 264 0.0 2.0 0.00 0.00 0.00 49 1008.3
20260506035014 66 128 0.0 1.0 0.00 0.00 0.00 50 1008.5
20260506034512 66 63 0.0 0.0 0.00 0.00 0.00 50 1008.5
20260506034009 67 12 0.0 0.0 0.00 0.00 0.00 49 1008.3
20260506033506 66 52 0.0 0.0 0.00 0.00 0.00 46 1008.3
20260506033002 66 111 0.0 0.0 0.00 0.00 0.00 48 1008.4
20260506032500 67 73 0.0 1.0 0.00 0.00 0.00 49 1008.3
20260506031956 66 114 0.0 1.0 0.00 0.00 0.00 50 1008.3
20260506031454 66 74 0.0 1.0 0.00 0.00 0.00 53 1008.3
20260506030951 65 108 1.0 2.0 0.00 0.00 0.00 50 1008.2
20260506030449 65 111 0.0 0.0 0.00 0.00 0.00 54 1008.4
20260506025946 65 111 0.0 0.0 0.00 0.00 0.00 54 1008.3
20260506025443 65 111 0.0 0.0 0.00 0.00 0.00 54 1008.3
20260506024939 65 111 0.0 0.0 0.00 0.00 0.00 53 1008.3
20260506024436 65 110 0.0 0.0 0.00 0.00 0.00 52 1008.3
20260506023932 66 101 0.0 0.0 0.00 0.00 0.00 54 1008.6
20260506023429 66 101 0.0 0.0 0.00 0.00 0.00 53 1008.4
20260506022926 66 101 0.0 0.0 0.00 0.00 0.00 53 1008.5
20260506022424 66 101 0.0 0.0 0.00 0.00 0.00 53 1008.7
20260506021921 67 101 0.0 0.0 0.00 0.00 0.00 52 1008.5
20260506021418 68 101 0.0 0.0 0.00 0.00 0.00 50 1008.8
20260506020915 68 101 0.0 0.0 0.00 0.00 0.00 51 1008.7
20260506020413 69 101 0.0 0.0 0.00 0.00 0.00 49 1008.7
20260506015910 70 101 0.0 0.0 0.00 0.00 0.00 46 1008.5
20260506015408 70 101 0.0 0.0 0.00 0.00 0.00 46 1008.4
20260506014904 70 101 0.0 0.0 0.00 0.00 0.00 44 1008.5
20260506014401 70 100 0.0 1.0 0.00 0.00 0.00 44 1008.5
20260506013857 70 100 0.0 0.0 0.00 0.00 0.00 45 1008.2
20260506013356 71 100 1.0 1.0 0.00 0.00 0.00 44 1008.4
20260506012851 71 100 0.0 1.0 0.00 0.00 0.00 46 1008.3
20260506012348 71 120 0.0 2.0 0.00 0.00 0.00 44 1008.3
20260506011846 71 70 1.0 2.0 0.00 0.00 0.00 45 1008.3
20260506011342 70 155 0.0 0.0 0.00 0.00 0.00 45 1008.3
20260506010840 70 118 0.0 1.0 0.00 0.00 0.00 47 1008.3
20260506010338 71 272 0.0 1.0 0.00 0.00 0.00 46 1008.0
20260506005834 71 272 0.0 0.0 0.00 0.00 0.00 46 1008.0
20260506005331 71 272 0.0 1.0 0.00 0.00 0.00 45 1007.8
20260506004827 72 126 0.0 1.0 0.00 0.00 0.00 45 1007.7
20260506004325 73 126 0.0 0.0 0.00 0.00 0.00 42 1008.0
20260506003821 73 126 0.0 0.0 0.00 0.00 0.00 41 1007.7
20260506003317 73 126 0.0 0.0 0.00 0.00 0.00 40 1007.7
20260506002813 73 126 0.0 0.0 0.00 0.00 0.00 39 1007.7
20260506002310 73 125 0.0 0.0 0.00 0.00 0.00 39 1007.3
20260506001806 73 127 0.0 1.0 0.00 0.00 0.00 39 1007.2
20260506001303 73 104 0.0 1.0 0.00 0.00 0.00 40 1007.3
20260506000800 73 262 0.0 0.0 0.00 0.00 0.00 39 1007.5
20260506000258 74 262 0.0 1.0 0.00 0.00 0.00 40 1007.2
20260505235754 74 345 0.0 1.0 0.00 0.00 0.00 39 1006.9
20260505235252 74 345 3.0 4.0 0.00 0.00 0.00 38 1007.2
20260505234749 74 213 3.0 4.0 0.00 0.00 0.00 40 1007.0
20260505234246 74 46 2.0 2.0 0.00 0.00 0.00 38 1007.0
20260505233743 74 338 1.0 2.0 0.00 0.00 0.00 39 1006.9
20260505233241 74 150 4.0 6.0 0.00 0.00 0.00 39 1007.2
20260505232738 74 336 1.0 2.0 0.00 0.00 0.00 39 1007.2
20260505232235 74 290 3.0 3.0 0.00 0.00 0.00 38 1007.0
20260505231731 75 126 1.0 2.0 0.00 0.00 0.00 38 1006.9
20260505231231 74 139 1.0 4.0 0.00 0.00 0.00 39 1007.0
20260505230728 75 109 0.0 1.0 0.00 0.00 0.00 38 1006.9
20260505230225 75 307 0.0 1.0 0.00 0.00 0.00 37 1007.2
20260505225721 75 139 0.0 1.0 0.00 0.00 0.00 38 1007.0
20260505225219 75 242 0.0 2.0 0.00 0.00 0.00 37 1006.8
20260505224714 75 116 1.0 7.0 0.00 0.00 0.00 38 1007.0
20260505224212 75 103 2.0 4.0 0.00 0.00 0.00 37 1007.0
20260505223709 75 274 1.0 4.0 0.00 0.00 0.00 37 1006.8
20260505223205 75 127 1.0 4.0 0.00 0.00 0.00 38 1006.7
20260505222701 75 96 2.0 3.0 0.00 0.00 0.00 38 1006.8
20260505222157 75 335 0.0 3.0 0.00 0.00 0.00 38 1006.8